{"data":{"norad_id":59446,"intl_designator":"2024-066E","name":"HAWK-9A","alt_names":[],"object_type":"PAYLOAD","status":"ACTIVE","operator":null,"country":"US","launch_date":"2024-04-07","launch_site_code":"AFETR","launch_vehicle":null,"mission":null,"orbit_class":"UNKNOWN","rcs_meters":null,"size_class":null,"mass_kg":null,"dimensions":null,"purposes":[],"wikipedia_slug":null,"has_3d_model":false,"image_url":null,"decayed_at":null,"tle_current":{"epoch":"2026-05-25T01:49:48.730944Z","epoch_age_seconds":68576,"freshness":"FRESH","line1":"1 59446U 24066E   26145.07625846  .00001183  00000+0  11482-3 0  9993","line2":"2 59446  45.6114  36.6818 0003500 275.6163  84.4319 14.99055020116362","mean_motion":14.9905502,"eccentricity":0.00035,"inclination_deg":45.6114,"raan_deg":36.6818,"arg_perigee_deg":275.6163,"mean_anomaly_deg":84.4319,"bstar":0.00011482,"rev_number":11636,"period_min":96.060516844805,"perigee_km":567.38294699255,"apogee_km":572.24651320362,"semimajor_km":6947.9517300981,"source":"CELESTRAK","updated_at":"2026-05-25T13:38:01.425111Z"}}}